Regional Weather Roundup
Issued by NWS

Home | Current Version | Previous Version | Graphics & Text | Print | Product List | Glossary On
Versions: 1 2 3 4 5 6 7 8 9 10 11 12 13 14 15 16 17 18 19 20 21 22 23 24 25 26 27 28 29 30 31 32 33 34 35 36 37 38 39 40 41 42 43 44 45 46 47 48 49 50
000
ASUS43 KMKX 031600
RWRWI

WISCONSIN REGIONAL WEATHER ROUNDUP
NATIONAL WEATHER SERVICE MILWAUKEE/SULLIVAN WI
1000 AM CST SAT DEC 03 2016

NOTE: "FAIR" INDICATES FEW OR NO CLOUDS BELOW 12,000 FEET WITH NO
SIGNIFICANT WEATHER AND/OR OBSTRUCTIONS TO VISIBILITY.

WIZ001-002-006>008-014>016-023>028-031700-
NORTHWEST WISCONSIN

CITY           SKY/WX    TMP DP  RH WIND       PRES   REMARKS
SUPERIOR ARPT  CLOUDY    29  25  82 CALM      30.29S
ASHLAND        CLOUDY    30  26  85 SW5       30.28F WCI  25
HAYWARD        CLOUDY    29  24  82 W3        30.27R
SIREN          CLOUDY    29  25  84 SW6       30.28S WCI  23
CUMBERLAND     CLOUDY    28  23  80 W3        30.27R
RICE LAKE      CLOUDY    29  25  84 SW6       30.30R WCI  23
CHETEK         CLOUDY    29  26  89 CALM      30.29R
LADYSMITH      CLOUDY    29  27  90 CALM      30.29S
EAU CLAIRE     NOT AVBL
MENOMONIE      CLOUDY    30  25  82 SW5       30.30F WCI  25
NEW RICHMOND   MIX PCPN  28  27  94 W5        30.29S WCI  23
OSCEOLA        CLOUDY    29  25  83 SW5       30.32S WCI  24
$$

WIZ003>005-009-010-017-018-031700-
NORTH CENTRAL WISCONSIN

CITY           SKY/WX    TMP DP  RH WIND       PRES   REMARKS
MANITOWISH WTR CLOUDY    27  26  96 W3        30.24S
ARBOR VITAE    CLOUDY    29  25  85 CALM      30.24S
WOODRUFF       CLOUDY    29  25  85 CALM      30.24S
RHINELANDER    CLOUDY    27  23  85 CALM      30.25F
EAGLE RIVER    CLOUDY    27  25  92 W6        30.24S WCI  20
LAND O LAKES   CLOUDY    28  26  91 SW5       30.25S WCI  23
PHILLIPS       CLOUDY    27  25  94 SW5       30.25S WCI  21
TOMAHAWK       CLOUDY    27  22  80 CALM      30.26F
MEDFORD        CLOUDY    27  20  75 CALM      30.25F
MERRILL        CLOUDY    28  24  86 CALM      30.27F
$$

WIZ029-030-035-036-043>047-031700-
CENTRAL WISCONSIN

CITY           SKY/WX    TMP DP  RH WIND       PRES   REMARKS
WAUSAU         CLOUDY    29  21  72 NW5       30.27S WCI  24
MOSINEE        CLOUDY    28  25  86 W5        30.28S WCI  23
MARSHFIELD     CLOUDY    28  23  81 W8        30.27R WCI  20
STEVENS POINT  CLOUDY    28  20  72 W6        30.29S WCI  22
WAUPACA        CLOUDY    33  24  68 CALM      30.30F
WAUTOMA        CLOUDY    31  23  72 W7        30.32R WCI  24
WISC RAPIDS    CLOUDY    30  22  72 W7        30.31R WCI  23
CAMP DOUGLAS   NOT AVBL
$$

WIZ011>013-019>022-031-037>040-048>050-031700-
NORTHEAST WISCONSIN

CITY           SKY/WX    TMP DP  RH WIND       PRES   REMARKS
ANTIGO         CLOUDY    26  23  86 W9        30.26F WCI  17
SHAWANO        CLOUDY    33  24  71 NW6       30.31S WCI  27
OCONTO         CLOUDY    32  26  77 W9        30.30F WCI  24
STURGEON BAY   CLOUDY    33  27  78 W6        30.30S WCI  28
GREEN BAY      CLOUDY    33  25  72 W6        30.31S WCI  28
MANITOWOC      NOT AVBL
APPLETON       CLOUDY    30  21  69 VRB6      30.29S WCI  24
CLINTONVILLE   CLOUDY    32  23  69 W7        30.31S WCI  26
OSHKOSH        CLOUDY    32  23  69 NW8       30.30S WCI  25
$$

WIZ032>034-041-042-053>061-031700-
SOUTHWEST WISCONSIN

CITY           SKY/WX    TMP DP  RH WIND       PRES   REMARKS
LA CROSSE      CLOUDY    33  23  66 CALM      30.31F
SPARTA         CLOUDY    30  23  73 CALM      30.32S
VIROQUA        CLOUDY    29  23  78 CALM      30.28F
BOSCOBEL       CLOUDY    33  23  66 CALM      30.33F
PRAIRIE DU CHI CLOUDY    32  23  68 CALM      30.32F
PLATTEVILLE    CLOUDY    31  26  79 NE6       30.31F WCI  26
$$

WIZ056-057-062-063-064-067-068-031700-
SOUTH CENTRAL WISCONSIN

CITY           SKY/WX    TMP DP  RH WIND       PRES   REMARKS
REEDSBURG      CLOUDY    30  22  72 CALM      30.30F
BARABOO/DELLS  CLOUDY    29  22  75 W7        30.32S WCI  22
LONE ROCK      NOT AVBL
MINERAL POINT  CLOUDY    32  27  80 N6        30.29F WCI  26
MADISON        CLOUDY    30  21  69 W6        30.32F WCI  24
MIDDLETON      CLOUDY    31  24  76 W9        30.33S WCI  23
WATERTOWN      CLOUDY    31  23  73 W8        30.32R WCI  23
MONROE         CLOUDY    30  25  80 NW7       30.31F WCI  23
JANESVILLE     NOT AVBL
$$

WIZ051-052-058>065-066-070>072-031700-
SOUTHEAST WISCONSIN

CITY           SKY/WX    TMP DP  RH WIND       PRES   REMARKS
MILWAUKEE      CLOUDY    33  23  66 NW7       30.33S WCI  27
WAUKESHA       CLOUDY    28  21  74 NW8       30.33R WCI  20
MILWAUKEE/TIMM CLOUDY    30  21  69 NW7       30.33S WCI  23
RACINE         CLOUDY    32  22  66 W5        30.35R WCI  27
BURLINGTON     CLOUDY    31  23  72 CALM      30.33R
KENOSHA        CLOUDY    32  23  69 NW8       30.33S WCI  25
FOND DU LAC    CLOUDY    32  21  64 NW7       30.32R WCI  26
SHEBOYGAN      CLOUDY    31  24  75 W9        30.31F WCI  23
WEST BEND      CLOUDY    30  25  80 W7        30.31S WCI  23
JUNEAU         CLOUDY    30  22  70 W5        30.32S WCI  25
$$

LSZ147-162-031700-
LAKE SUPERIOR

STATION/POSITION TIME  TEMP    WIND        PRES    WAVE
                       AIR SEA DIR/SP/G            HT/PER
                 (UTC) (F)     (DEG/KT/KT) (MB)    (FT/S)
DEVILS ISLAND    1500   32     230/ 13/ 16 1025.8F
PORT WING        1540   30     200/  4/  7 1025.4S
SAXON HARBOR     1540   31     200/  3/  5 1025.4R
$$

LMZ867-665-643>646-031700-
LAKE MICHIGAN

STATION/POSITION TIME  TEMP    WIND        PRES    WAVE
                       AIR SEA DIR/SP/G            HT/PER
                 (UTC) (F)     (DEG/KT/KT) (MB)    (FT/S)
CHAMBERS ISLAND  1540   35     230/  3/  8 1025.1S
NORTHPORT PIER   1540   36     260/  1/  5 1025.4S
SISTER BAY       1523   36     310/ 11/ 12   N/A
ALGOMA LAKESHORE 1536          290/  6/  8   N/A
KEWAUNEE LAKESHO 1530   32     270/  9/ 14 1025.5F
SHEBOYGAN LAKESH 1500   32     260/  9/ 10 1027.3F
PORT WASHINGTON  1530   32     280/  4/  9 1027.8S
MILWAUKEE LAKESH 1530   32     270/  6/  7   N/A
S MID LAKE BUOY  1450   34 49  270/ 12/ 16 1027.6S   1/ 4
KENOSHA   LAKESH 1500   32     290/  7/ 11 1027.1
$$

TC  - TEMPERATURE IN CELSIUS
VSB - VISIBILITY IN STATUTE MILES
WCI - WIND CHILL INDEX
HX  - HEAT INDEX





USA.gov is the U.S. government's official web portal to all federal, state and local government web resources and services.